Home > Time Zones > World Clock > Weather > Belgium > Spa > Past weeks

Flag for Belgium Weather past 2 weeks in Spa, Belgium

Now
43 °F

Drizzle. Low clouds.


Feels Like: 38 °F
Forecast: 34 / 43 °F
Wind: 9 mph from Southwest

Location: Spa / La Sauveniere

Current Time: Mar 2, 2015 at 1:26:17 AM

Latest Report: Mar 2, 2015 at 1:00 AM


Visibility: 3 mi

Pressure: 29.50 "Hg

Humidity: 90%

Dew point: 40 °F

Location of SpaLocation

Historic Weather in Spa — Graph

°F

Spa temperature yesterday

Maximum temperature yesterday: 47 °F (at 3:00 PM)
Minimum temperature yesterday: 36 °F (at 3:00 AM)
Average temperature yesterday: 41 °F

Past Weeks' High & Low Weather Summary

 TemperatureHumidityPressure
High47 °F (Mar 1, 3:00 PM)100% (Feb 17, 5:00 AM)30.79 "Hg (Feb 17, 5:00 AM)
Low28 °F (Feb 16, 9:00 AM)54% (Feb 28, 4:00 PM)29.41 "Hg (Feb 21, 4:00 AM)
Average35 °F88%30.00 "Hg
* Reported Midnight between Feb 14 and Feb 15 — Midnight between Mar 1 and Mar 2, Spa, Weather by CustomWeather, © 2015

Note: Actual official high and low records may vary slightly from our data, if they occured in-between our weather recording intervals... More about our weather records

Advertising

Spa weather history for previous 24 hours

 ConditionsComfort  
Time TempWeatherWind HumidityBarometerVisibility
12:00 AM
Mon, Mar 2
43 °FPassing clouds.8 mph84%29.56 "Hg9 mi
11:00 PM
Sun, Mar 1
43 °FOvercast.8 mph79%29.59 "Hg11 mi
10:00 PM43 °FPassing clouds.6 mph81%29.61 "Hg8 mi
9:00 PM42 °FOvercast.5 mph80%29.65 "Hg9 mi
8:00 PM42 °FOvercast.5 mph78%29.66 "Hg11 mi
7:00 PM42 °FOvercast.3 mph81%29.68 "Hg12 mi
6:00 PM42 °FOvercast.5 mph83%29.69 "Hg11 mi
5:00 PM42 °FDrizzle. Overcast.5 mph89%29.71 "Hg6 mi
4:00 PM42 °FPassing clouds.6 mph85%29.71 "Hg22 mi
3:00 PM47 °FPartly sunny.8 mph64%29.69 "Hg10 mi
2:00 PM45 °FScattered clouds.7 mph67%29.69 "Hg11 mi
1:00 PM45 °FPartly sunny.8 mph66%29.72 "Hg11 mi
12:00 PM44 °FPartly sunny.7 mph70%29.71 "Hg11 mi
11:00 AM44 °FPartly sunny.8 mph78%29.70 "Hg9 mi
10:00 AM43 °FLow clouds.7 mph90%29.69 "Hg11 mi
9:00 AM42 °FDrizzle. Low clouds.6 mph95%29.68 "Hg2 mi
8:00 AM41 °FDrizzle. Low clouds.6 mph94%29.66 "Hg5 mi
7:00 AM38 °FLow clouds.8 mph96%29.65 "HgN/A
6:00 AM37 °FLow clouds.9 mph93%29.66 "HgN/A
5:00 AM37 °FLight rain. Low clouds.10 mph94%29.66 "Hg1 mi
3:00 AM36 °FFog.10 mph87%29.72 "Hg18 mi
2:00 AM36 °FClear.12 mph79%29.74 "Hg22 mi
1:00 AM38 °FOvercast.10 mph66%29.79 "Hg28 mi
Weather by CustomWeather, © 2015

See weather overviewHow to use our weather pages